loading
|

THOR ABLESTAR DEB, 327

Orbit data source: Space-Track

THOR ABLESTAR DEB, 327 is space debris in LEO originally from a launch on Thu, 29 Jun 1961 UTC launched from the Air Force Eastern Test Range (AFETR). Debris objects in space refer to the collection of defunct objects orbiting the Earth. Examples of debris include non-operational satellites, rocket bodies, and fragments generated from explosions, collisions, or faulty payload assembly.

Loading next visibility...
Loading greatness...
THOR ABLESTAR DEB details
Identifier
327, 1961-015DD
Orbit
LEO
Last TLE update1 day ago
Origin
Flag of USUSAF SSD (US)
ManufacturerUnknown
Mission statusUnknown
MissionUnknown
Bus & MotorUnknown
MassUnknown
Launch date (UTC)
1961-06-29 (63 years ago)
Launch vehicleUnknown
Launch site
Air Force Eastern Test Range (AFETR)
Object type
Payload
Rocket body
Debris
Radar Cross SectionSmall (<0.1 m²)

Expand to show TLE details & history

TLE from 1 day ago
0 THOR ABLESTAR DEB
1 00327U 61015DD  24258.14180132  .00000716  00000-0  60644-3 0  9993
2 00327  66.5431 169.3776 0114966 191.7821 168.0563 13.90389233197607
Epoch: 2024-09-14T03:24Z
Definitive object data (Epoch: 2024-09-14T03:24:11.634Z)
Latitude0.00004°
Longitude124.72537°
Altitude1,011.542 km
Speed7.305 km/s
True Right ascension11h 17m 30s
True Declination0° 00' 00"
Sunlit
Object was in daylight at TLE epoch
Predictive object data (real-time)
Latitude-51.30108°
Longitude89.31371°
Altitude975.459 km
Speed7.349 km/s
Apparent Right ascension10h 11m 44s
Apparent Declination-47° 20' 04"
Sunlit
Object is in daylight
Predictive observer data (real-time)
Local Sidereal Time23:22:55
Azimuth125.897° SE
Elevation-75.185°
Doppler factor1
Orbital elements
Apogee1,009.659 km
Perigee841.721 km
Semi-major axis7,303.827 km
Eccentricity0.0114966
Inclination66.5431°
RAAN169.3776°
Arg. of periapsis191.7821°
True anomaly168.32516°
Mean anomaly168.0563°
Eccentric anomaly168.1911°
Mean motion3.4771 °/min
BSTAR0.00060644
Period103.53 mins
No data available

THOR ABLESTAR DEB Visibility forecast

Observer location: 39.9160978°, -105.1181434

THOR ABLESTAR DEB is not visible in the next 10 days
Span
Click to sort rows by Start time (UTC) header in descending order
Start Az.
Max El. time (UTC)
Max El. Az.
Max El.
End time (UTC)
End Az.